When you browse on this site, cookies collect data to enhance your experience and personalize the content and advertising you see.
Visit our Privacy Policy to learn more. By continuing to use the site, you agree to this use of cookies and data.
  • In Österreich
  • Länderverzeichnis
  • Für 7 Tage
  • Wassertemperatur
  • Wetterkarte
  • News
  • Widgets
  • user-avatar
    Anmelden

    Stündliche Wetter Puerto Tejada

    Heute, 21 November, Donnerstag

    Zeit Temperatur Niederschläge Wind Luftdruck Luftfeuchtigkeit
    00:00 +20°C° 1.5 mm 0 m/S 678 mmHg 95%
    01:00 +20°C° 1.5 mm 0 m/S 678 mmHg 95%
    02:00 +20°C° 0.6 mm 0 m/S 678 mmHg 94%
    03:00 +20°C° 0.6 mm 0 m/S 678 mmHg 94%
    04:00 +20°C° 0.6 mm 0 m/S 678 mmHg 93%
    05:00 +20°C° 0.5 mm 0 m/S 678 mmHg 93%
    06:00 +20°C° 0.5 mm 0 m/S 678 mmHg 92%
    07:00 +20°C° 0.5 mm 0 m/S 678 mmHg 92%
    08:00 +21°C° 0.3 mm 0 m/S 679 mmHg 88%
    09:00 +25°C° 0.3 mm 1 m/S 679 mmHg 83%
    10:00 +26°C° 0.3 mm 1 m/S 680 mmHg 79%
    11:00 +27°C° 0.6 mm 1 m/S 679 mmHg 77%
    12:00 +26°C° 0.6 mm 0 m/S 679 mmHg 74%
    13:00 +26°C° 0.6 mm 0 m/S 678 mmHg 72%
    14:00 +26°C° 1.8 mm 0 m/S 678 mmHg 75%
    15:00 +25°C° 1.8 mm 0 m/S 677 mmHg 79%
    16:00 +24°C° 1.8 mm 0 m/S 677 mmHg 82%
    17:00 +25°C° 1.4 mm 1 m/S 677 mmHg 84%
    18:00 +24°C° 1.4 mm 1 m/S 677 mmHg 86%
    19:00 +23°C° 1.4 mm 1 m/S 677 mmHg 88%
    20:00 +23°C° 0.8 mm 1 m/S 678 mmHg 88%
    21:00 +22°C° 0.8 mm 1 m/S 678 mmHg 88%
    22:00 +20°C° 0.8 mm 0 m/S 678 mmHg 88%
    23:00 +20°C° 2.8 mm 0 m/S 678 mmHg 90%

    Morgen, 22 November, Freitag

    Zeit Temperatur Niederschläge Wind Luftdruck Luftfeuchtigkeit
    00:00 +20°C° 2.8 mm 0 m/S 678 mmHg 91%
    01:00 +19°C° 2.8 mm 0 m/S 678 mmHg 92%
    02:00 +19°C° 1.4 mm 0 m/S 677 mmHg 93%
    03:00 +19°C° 1.4 mm 0 m/S 677 mmHg 94%
    04:00 +19°C° 1.4 mm 0 m/S 677 mmHg 95%
    05:00 +19°C° 0 mm 0 m/S 677 mmHg 94%
    06:00 +20°C° 0 mm 0 m/S 678 mmHg 93%
    07:00 +20°C° 0 mm 0 m/S 678 mmHg 92%
    08:00 +21°C° 0.2 mm 0 m/S 679 mmHg 88%
    09:00 +25°C° 0.2 mm 1 m/S 679 mmHg 83%
    10:00 +26°C° 0.2 mm 1 m/S 680 mmHg 79%
    11:00 +26°C° 1.3 mm 1 m/S 679 mmHg 79%
    12:00 +26°C° 1.3 mm 1 m/S 679 mmHg 78%
    13:00 +27°C° 1.3 mm 1 m/S 678 mmHg 77%
    14:00 +26°C° 1.5 mm 1 m/S 678 mmHg 81%
    15:00 +23°C° 1.5 mm 0 m/S 677 mmHg 85%
    16:00 +22°C° 1.5 mm 0 m/S 677 mmHg 89%
    17:00 +22°C° 0.8 mm 0 m/S 677 mmHg 90%
    18:00 +23°C° 0.8 mm 1 m/S 677 mmHg 90%
    19:00 +22°C° 0.8 mm 1 m/S 677 mmHg 91%
    20:00 +22°C° 0.2 mm 1 m/S 678 mmHg 91%
    21:00 +19°C° 0.2 mm 0 m/S 678 mmHg 91%
    22:00 +19°C° 0.2 mm 0 m/S 678 mmHg 90%
    23:00 +19°C° 0 mm 0 m/S 678 mmHg 91%

    übermorgen, 23 November, Samstag

    Zeit Temperatur Niederschläge Wind Luftdruck Luftfeuchtigkeit
    00:00 +19°C° 0 mm 0 m/S 678 mmHg 91%
    01:00 +19°C° 0 mm 0 m/S 678 mmHg 91%
    02:00 +19°C° 0.1 mm 0 m/S 677 mmHg 91%
    03:00 +19°C° 0.1 mm 0 m/S 677 mmHg 92%
    04:00 +19°C° 0.1 mm 0 m/S 677 mmHg 92%
    05:00 +19°C° 0.1 mm 0 m/S 677 mmHg 92%
    06:00 +19°C° 0.1 mm 0 m/S 678 mmHg 92%
    07:00 +19°C° 0.1 mm 0 m/S 678 mmHg 92%
    08:00 +21°C° 0.1 mm 0 m/S 679 mmHg 87%
    09:00 +22°C° 0.1 mm 0 m/S 679 mmHg 82%
    10:00 +26°C° 0.1 mm 1 m/S 680 mmHg 77%
    11:00 +27°C° 0.4 mm 1 m/S 679 mmHg 74%
    12:00 +28°C° 0.4 mm 1 m/S 679 mmHg 70%
    13:00 +28°C° 0.4 mm 1 m/S 678 mmHg 67%
    14:00 +28°C° 1 mm 1 m/S 678 mmHg 71%
    15:00 +27°C° 1 mm 1 m/S 677 mmHg 76%
    16:00 +26°C° 1 mm 1 m/S 677 mmHg 81%
    17:00 +25°C° 0.8 mm 1 m/S 677 mmHg 84%
    18:00 +24°C° 0.8 mm 1 m/S 677 mmHg 88%
    19:00 +20°C° 0.8 mm 0 m/S 677 mmHg 92%
    20:00 +20°C° 0.2 mm 0 m/S 678 mmHg 92%
    21:00 +20°C° 0.2 mm 0 m/S 678 mmHg 92%
    22:00 +19°C° 0.2 mm 0 m/S 678 mmHg 92%
    23:00 +19°C° 0 mm 0 m/S 678 mmHg 93%

    24 November, Sonntag

    Zeit Temperatur Niederschläge Wind Luftdruck Luftfeuchtigkeit
    00:00 +19°C° 0 mm 0 m/S 678 mmHg 93%
    01:00 +19°C° 0 mm 0 m/S 678 mmHg 93%
    02:00 +19°C° 0 mm 0 m/S 677 mmHg 93%
    03:00 +19°C° 0 mm 0 m/S 677 mmHg 93%
    04:00 +18°C° 0 mm 0 m/S 677 mmHg 93%
    05:00 +19°C° 0 mm 0 m/S 677 mmHg 92%
    06:00 +19°C° 0 mm 0 m/S 678 mmHg 91%
    07:00 +20°C° 0 mm 0 m/S 678 mmHg 90%
    08:00 +21°C° 0 mm 0 m/S 678 mmHg 84%
    09:00 +25°C° 0 mm 1 m/S 679 mmHg 79%
    10:00 +27°C° 0 mm 1 m/S 679 mmHg 73%
    11:00 +28°C° 0.2 mm 1 m/S 678 mmHg 70%
    12:00 +28°C° 0.2 mm 1 m/S 678 mmHg 67%
    13:00 +29°C° 0.2 mm 1 m/S 677 mmHg 65%
    14:00 +29°C° 0.5 mm 1 m/S 677 mmHg 68%
    15:00 +28°C° 0.5 mm 1 m/S 676 mmHg 71%
    16:00 +27°C° 0.5 mm 1 m/S 676 mmHg 74%
    17:00 +26°C° 0.8 mm 1 m/S 676 mmHg 80%
    18:00 +24°C° 0.8 mm 1 m/S 676 mmHg 86%
    19:00 +21°C° 0.8 mm 0 m/S 676 mmHg 91%
    20:00 +21°C° 0.3 mm 0 m/S 677 mmHg 92%
    21:00 +20°C° 0.3 mm 0 m/S 677 mmHg 92%
    22:00 +20°C° 0.3 mm 0 m/S 678 mmHg 93%
    23:00 +20°C° 0.1 mm 0 m/S 678 mmHg 93%

    25 November, Montag

    Zeit Temperatur Niederschläge Wind Luftdruck Luftfeuchtigkeit
    00:00 +20°C° 0.1 mm 0 m/S 677 mmHg 93%
    01:00 +20°C° 0.1 mm 0 m/S 677 mmHg 93%
    02:00 +20°C° 0.1 mm 0 m/S 677 mmHg 93%
    03:00 +20°C° 0.1 mm 0 m/S 676 mmHg 93%
    04:00 +20°C° 0.1 mm 0 m/S 676 mmHg 93%
    05:00 +20°C° 0 mm 0 m/S 676 mmHg 92%
    06:00 +20°C° 0 mm 0 m/S 677 mmHg 91%
    07:00 +20°C° 0 mm 0 m/S 677 mmHg 90%
    08:00 +22°C° 0 mm 0 m/S 678 mmHg 85%
    09:00 +26°C° 0 mm 1 m/S 678 mmHg 79%
    10:00 +27°C° 0 mm 1 m/S 678 mmHg 74%
    11:00 +28°C° 0.2 mm 1 m/S 678 mmHg 71%
    12:00 +29°C° 0.2 mm 1 m/S 677 mmHg 68%
    13:00 +30°C° 0.2 mm 1 m/S 676 mmHg 65%
    14:00 +29°C° 0.4 mm 1 m/S 676 mmHg 68%
    15:00 +29°C° 0.4 mm 1 m/S 675 mmHg 70%
    16:00 +26°C° 0.4 mm 0 m/S 675 mmHg 73%
    17:00 +24°C° 1.1 mm 0 m/S 675 mmHg 79%
    18:00 +23°C° 1.1 mm 0 m/S 675 mmHg 86%
    19:00 +21°C° 1.1 mm 0 m/S 675 mmHg 92%
    20:00 +21°C° 0.3 mm 0 m/S 676 mmHg 92%
    21:00 +21°C° 0.3 mm 0 m/S 676 mmHg 92%
    22:00 +21°C° 0.3 mm 0 m/S 677 mmHg 92%
    23:00 +21°C° 0.2 mm 0 m/S 677 mmHg 92%

    26 November, Dienstag

    Zeit Temperatur Niederschläge Wind Luftdruck Luftfeuchtigkeit
    00:00 +20°C° 0.2 mm 0 m/S 676 mmHg 92%
    01:00 +20°C° 0.2 mm 0 m/S 676 mmHg 92%
    02:00 +20°C° 0.3 mm 0 m/S 676 mmHg 92%
    03:00 +20°C° 0.3 mm 0 m/S 676 mmHg 93%
    04:00 +19°C° 0.3 mm 0 m/S 675 mmHg 93%
    05:00 +20°C° 0.1 mm 0 m/S 676 mmHg 92%
    06:00 +20°C° 0.1 mm 0 m/S 676 mmHg 91%
    07:00 +20°C° 0.1 mm 0 m/S 677 mmHg 91%
    08:00 +22°C° 0.1 mm 0 m/S 677 mmHg 86%
    09:00 +24°C° 0.1 mm 0 m/S 678 mmHg 81%
    10:00 +27°C° 0.1 mm 1 m/S 678 mmHg 76%
    11:00 +28°C° 0.6 mm 1 m/S 678 mmHg 73%
    12:00 +29°C° 0.6 mm 1 m/S 677 mmHg 70%
    13:00 +30°C° 0.6 mm 1 m/S 677 mmHg 67%
    14:00 +29°C° 1.5 mm 1 m/S 676 mmHg 71%
    15:00 +28°C° 1.5 mm 1 m/S 675 mmHg 76%
    16:00 +28°C° 1.5 mm 1 m/S 675 mmHg 80%
    17:00 +26°C° 1.5 mm 1 m/S 675 mmHg 83%
    18:00 +25°C° 1.5 mm 1 m/S 675 mmHg 87%
    19:00 +23°C° 1.5 mm 1 m/S 676 mmHg 91%
    20:00 +21°C° 0.3 mm 0 m/S 676 mmHg 91%
    21:00 +21°C° 0.3 mm 0 m/S 677 mmHg 91%
    22:00 +20°C° 0.3 mm 0 m/S 677 mmHg 92%
    23:00 +20°C° 0.2 mm 0 m/S 677 mmHg 92%
    Mehr zeigen